Alice Springs, Australia

7:24 PM ACST on October 22, 2019 (GMT +0930)
Alice Springs

Weather History for YBAS - August, 2019

Change the Weather History Date:

Thursday, August 8, 2019

  Actual Average Record
Temperature  
Mean Temperature 55 °F -  
Max Temperature 66 °F 74 °F 82 °F (2012)
Min Temperature 44 °F 45 °F 31 °F (2015)
Degree Days  
Heating Degree Days 10    
Growing Degree Days 5 (Base 50)    
Moisture  
Dew Point 33 °F    
Average Humidity 39    
Maximum Humidity 71    
Minimum Humidity 15    
Precipitation  
Precipitation 0.00 in 0.02 in - ()
Sea Level Pressure  
Sea Level Pressure 30.12 in    
Wind  
Wind Speed 7 mph ()    
Max Wind Speed 14 mph    
Max Gust Speed -    
Visibility 6.2 miles    
Events      
Averages and records for this station are not official NWS values.
T = Trace of Precipitation, MM = Missing Value Source: Averaged Metar Reports

Daily Weather History Graph

Daily Weather History Graph

Search for Another Location

Airport or City:

Astronomy

Aug. 08, 2019 Rise Set
Actual Time 7:06 AM ACST 6:14 PM ACST
Civil Twilight 6:42 AM ACST 6:38 PM ACST
Nautical Twilight 6:15 AM ACST 7:05 PM ACST
Astronomical Twilight 5:48 AM ACST 7:31 PM ACST
Moon 12:21 PM ACST (8/8) 12:41 AM ACST (8/8)
Length of Visible Light 11h 55m
Length of Day
11h 08m
First Quarter, 54% of the Moon is Illuminated
Aug 8
First Quarter
Aug 15
Full
Aug 24
Last Quarter
Aug 30
New
Sep 6
First Quarter

Hourly Weather History & Observations

Time (ACST) Temp. Windchill Dew Point Humidity Pressure Visibility Wind Dir Wind Speed Gust Speed Precip Events Conditions
12:00 AM 58 °F - 24 °F 15% 30.01 in - SW 4.6 mph - -   Clear
12:00 AM 59.0 °F - 23.0 °F 25% 30.04 in 6.2 mi SW 4.6 mph - N/A   Mostly Cloudy
12:30 AM 56 °F - 24 °F 18% 30.02 in - WSW 6.9 mph - -  
12:30 AM 55.4 °F - 24.8 °F 31% 30.04 in 6.2 mi WSW 6.9 mph - N/A   Mostly Cloudy
1:00 AM 55.4 °F - 24.8 °F 31% 30.04 in 6.2 mi West 8.1 mph - N/A   Mostly Cloudy
1:30 AM 59.0 °F - 26.6 °F 29% 30.06 in 6.2 mi SW 8.1 mph - N/A   Mostly Cloudy
2:00 AM 55.4 °F - 26.6 °F 33% 30.06 in 6.2 mi SSW 9.2 mph - N/A   Scattered Clouds
2:30 AM 57 °F - 32 °F 27% 30.06 in - SSW 10.4 mph - -  
2:30 AM 57.2 °F - 32.0 °F 38% 30.06 in 6.2 mi SSW 10.4 mph - N/A   Scattered Clouds
3:00 AM 55 °F - 33 °F 31% 30.06 in - SSW 8.1 mph - -   Clear
3:00 AM 55.4 °F - 33.8 °F 44% 30.06 in 6.2 mi SSW 8.1 mph - N/A   Unknown
3:30 AM 54 °F - 35 °F 36% 30.07 in - South 6.9 mph - -  
3:30 AM 53.6 °F - 33.8 °F 47% 30.06 in 6.2 mi South 6.9 mph - N/A   Unknown
4:30 AM 51.8 °F - 33.8 °F 50% 30.09 in 6.2 mi SSW 6.9 mph - N/A   Unknown
5:00 AM 50.0 °F - 35.6 °F 58% 30.12 in 6.2 mi South 6.9 mph - N/A   Unknown
5:30 AM 49 °F - 36 °F 49% 30.11 in - South 6.9 mph - -  
5:30 AM 50.0 °F - 35.6 °F 58% 30.12 in 6.2 mi South 6.9 mph - N/A   Unknown
6:00 AM 50 °F - 38 °F 52% 30.13 in - South 8.1 mph - -   Clear
6:00 AM 50.0 °F - 37.4 °F 62% 30.12 in 6.2 mi South 8.1 mph - N/A   Unknown
6:30 AM 49 °F - 37 °F 54% 30.14 in - South 6.9 mph - -  
6:30 AM 48.2 °F - 37.4 °F 66% 30.15 in 6.2 mi South 6.9 mph - N/A   Unknown
7:00 AM 46.4 °F 44.3 °F 37.4 °F 71% 30.15 in 6.2 mi South 4.6 mph - N/A   Unknown
7:30 AM 46.4 °F 45.2 °F 37.4 °F 71% 30.15 in 6.2 mi South 3.5 mph - N/A   Unknown
8:00 AM 51.8 °F - 39.2 °F 62% 30.18 in 6.2 mi South 6.9 mph - N/A   Unknown
8:30 AM 53 °F - 40 °F 51% 30.18 in - SSE 8.1 mph - -  
8:30 AM 53.6 °F - 41.0 °F 62% 30.18 in 6.2 mi SSE 8.1 mph - N/A   Unknown
9:00 AM 55 °F - 40 °F 46% 30.18 in - SE 12.7 mph - -   Clear
9:00 AM 55.4 °F - 41.0 °F 58% 30.18 in - SE 12.7 mph - N/A   Clear
9:30 AM 55.4 °F - 41.0 °F 58% 30.21 in - ESE 12.7 mph - N/A   Clear
10:00 AM 55.4 °F - 39.2 °F 54% 30.21 in - ESE 13.8 mph - N/A   Clear
10:30 AM 57.2 °F - 39.2 °F 51% 30.18 in 6.2 mi ESE 11.5 mph - N/A   Partly Cloudy
11:00 AM 59.0 °F - 41.0 °F 51% 30.18 in 6.2 mi SSE 12.7 mph - N/A   Partly Cloudy
11:30 AM 59 °F - 39 °F 35% 30.16 in - SE 11.5 mph - -  
11:30 AM 59.0 °F - 39.2 °F 48% 30.18 in 6.2 mi SE 11.5 mph - N/A   Partly Cloudy
12:00 PM 60 °F - 38 °F 33% 30.15 in - SSE 10.4 mph - -   Clear
12:00 PM 60.8 °F - 39.2 °F 45% 30.15 in 6.2 mi SSE 10.4 mph - N/A   Partly Cloudy
12:30 PM 60 °F - 36 °F 29% 30.14 in - SE 8.1 mph - -  
12:30 PM 60.8 °F - 35.6 °F 39% 30.15 in 6.2 mi SE 8.1 mph - N/A   Unknown
1:30 PM 62.6 °F - 35.6 °F 37% 30.12 in 6.2 mi ESE 9.2 mph - N/A   Unknown
2:00 PM 62.6 °F - 35.6 °F 37% 30.12 in 6.2 mi South 9.2 mph - N/A   Unknown
2:30 PM 64 °F - 35 °F 22% 30.09 in - SSE 8.1 mph - -  
2:30 PM 64.4 °F - 35.6 °F 34% 30.09 in 6.2 mi SSE 8.1 mph - N/A   Unknown
3:00 PM 65 °F - 34 °F 20% 30.08 in - South 9.2 mph - -   Clear
3:00 PM 66.2 °F - 33.8 °F 30% 30.09 in 6.2 mi South 9.2 mph - N/A   Unknown
3:30 PM 65 °F - 34 °F 20% 30.08 in - SSE 6.9 mph - -  
3:30 PM 66.2 °F - 33.8 °F 30% 30.09 in 6.2 mi SSE 6.9 mph - N/A   Unknown
4:30 PM 64.4 °F - 32.0 °F 30% 30.09 in 6.2 mi South 5.8 mph - N/A   Unknown
5:00 PM 64.4 °F - 30.2 °F 28% 30.09 in 6.2 mi South 8.1 mph - N/A   Unknown
5:30 PM 64 °F - 31 °F 17% 30.09 in - SSE 6.9 mph - -  
5:30 PM 64.4 °F - 30.2 °F 28% 30.09 in 6.2 mi SSE 6.9 mph - N/A   Unknown
6:00 PM 63 °F - 30 °F 17% 30.10 in - South 5.8 mph - -   Clear
6:00 PM 62.6 °F - 30.2 °F 30% 30.09 in 6.2 mi South 5.8 mph - N/A   Unknown
6:30 PM 60 °F - 29 °F 19% 30.10 in - South 6.9 mph - -  
6:30 PM 60.8 °F - 28.4 °F 29% 30.12 in 6.2 mi South 6.9 mph - N/A   Unknown
7:00 PM 59.0 °F - 28.4 °F 31% 30.12 in 6.2 mi South 8.1 mph - N/A   Unknown
7:30 PM 55.4 °F - 26.6 °F 33% 30.12 in 6.2 mi South 6.9 mph - N/A   Unknown
8:00 PM 55.4 °F - 26.6 °F 33% 30.15 in 6.2 mi South 8.1 mph - N/A   Unknown
8:30 PM 54 °F - 27 °F 23% 30.14 in - South 5.8 mph - -  
8:30 PM 53.6 °F - 26.6 °F 35% 30.15 in 6.2 mi South 5.8 mph - N/A   Unknown
9:00 PM 52 °F - 27 °F 25% 30.15 in - ESE 4.6 mph - -   Clear
9:00 PM 51.8 °F - 26.6 °F 38% 30.15 in 6.2 mi ESE 4.6 mph - N/A   Unknown
9:30 PM 50 °F - 27 °F 28% 30.16 in - NNE 3.5 mph - -  
9:30 PM 50.0 °F - 26.6 °F 40% 30.18 in 6.2 mi NNE 3.5 mph - N/A   Unknown
10:00 PM 48.2 °F - 26.6 °F 43% 30.18 in 6.2 mi Calm Calm - N/A   Unknown
10:30 PM 48.2 °F - 28.4 °F 46% 30.18 in 6.2 mi Calm Calm - N/A   Unknown
11:00 PM 44.6 °F 42.2 °F 24.8 °F 46% 30.18 in 6.2 mi NNW 4.6 mph - N/A   Unknown
11:30 PM 46 °F - 28 °F 36% 30.16 in - WNW 5.8 mph - -  
11:30 PM 46.4 °F 43.5 °F 26.6 °F 46% 30.15 in 6.2 mi WNW 5.8 mph - N/A   Unknown